This is the latest recevied weather packets stored in our database for station/object K7SPS-10. If no packets are shown the sender has not sent any weather packets the latest 1 day(s).
| Time | Temp. | Humidity | Pressure | Rain* | Wind** | Luminosity | Snow |
|---|---|---|---|---|---|---|---|
| 1778115052 | 25° C | 34% | 1014.2 hPa | 0 mm | - | 146 W/m² | - |
| 1778114749 | 24.44° C | 35% | 1014.2 hPa | 0 mm | - | 202 W/m² | - |
| 1778114447 | 24.44° C | 35% | 1014.4 hPa | 0 mm | - | 140 W/m² | - |
| 1778114142 | 24.44° C | 35% | 1014.4 hPa | 0 mm | - | 130 W/m² | - |
| 1778113838 | 25° C | 34% | 1014.6 hPa | 0 mm | - | 183 W/m² | - |
| 1778112625 | 25° C | 35% | 1014.7 hPa | 0 mm | - | 348 W/m² | - |
| 1778112321 | 25° C | 34% | 1014.5 hPa | 0 mm | - | 259 W/m² | - |
| 1778110501 | 25° C | 34% | 1014.7 hPa | 0 mm | - | 351 W/m² | - |
| 1778109894 | 24.44° C | 34% | 1015 hPa | 0 mm | - | 420 W/m² | - |
| 1778109590 | 24.44° C | 35% | 1015 hPa | 0 mm | - | 348 W/m² | - |
| 1778108075 | 24.44° C | 33% | 1015.1 hPa | 0 mm | - | 524 W/m² | - |
| 1778107469 | 24.44° C | 33% | 1015.8 hPa | 0 mm | - | 552 W/m² | - |
| 1778102007 | 22.78° C | 34% | 1017.8 hPa | 0 mm | - | 725 W/m² | - |
| 1778099280 | 22.22° C | 33% | 1018.3 hPa | 0 mm | - | 785 W/m² | - |
| 1778098977 | 21.67° C | 35% | 1018.3 hPa | 0 mm | - | 786 W/m² | - |
| 1778098370 | 22.22° C | 32% | 1018.6 hPa | 0 mm | - | 794 W/m² | - |
| 1778097460 | 21.67° C | 32% | 1018.7 hPa | 0 mm | - | 794 W/m² | - |
| 1778096854 | 21.67° C | 33% | 1018.9 hPa | 0 mm | - | 799 W/m² | - |
| 1778095945 | 21.67° C | 32% | 1019.1 hPa | 0 mm | - | 805 W/m² | - |
| 1778095035 | 21.11° C | 35% | 1019.3 hPa | 0 mm | - | 804 W/m² | - |
| 1778094731 | 21.11° C | 32% | 1019.4 hPa | 0 mm | - | 802 W/m² | - |
| 1778092610 | 19.44° C | 35% | 1020 hPa | 0 mm | - | 780 W/m² | - |
| 1778091700 | 19.44° C | 34% | 1020.2 hPa | 0 mm | - | 764 W/m² | - |
| 1778091398 | 19.44° C | 34% | 1020.4 hPa | 0 mm | - | 761 W/m² | - |
| 1778091095 | 19.44° C | 34% | 1020.5 hPa | 0 mm | - | 753 W/m² | - |
* Rain latest hour (hover to see other rain measurements)
** Current wind speed in m/s (hover to see current wind gust speed)